Weather in Pivdenne

Ukraine / Kharkiv Region     49°52′35″N   36°03′51″E
temp.,
°C
wind,
m/s
gust,
m/s
humid.,
%
clouds,
%
prec.,
mm/h
press.,
hPa
HPBL,
m
13 august, sat
sat1300:00+24ene41045100 0.0 1016194
03:00+27ene61334100 0.0 1016685
06:00+25ene61443100 0.0 1015566
09:00+28e7134029 0.0 1015898
12:00+31e8103387 0.0 10151373
15:00+33ene8102637 0.0 10132706
18:00+32ese6102457 0.0 1012959
21:00+27ene71438100 0.0 1013526
14 august, sun
sun1400:00+26ene7164189 0.0 1013835
03:00+24ene7154759 0.0 1013714
06:00+23e61551100 0.0 1013594
09:00+28e6123595 0.0 1012836
12:00+31e71128100 0.0 10121423
15:00+34ene81021100 0.0 10113013
18:00+31ene81230100 0.0 10111024
21:00+28ene7163697 0.0 1011737
15 august, mon
mon1500:00+27ene71736100 0.0 1011660
03:00+26ene7173350 0.0 1011615
06:00+24ene61434100 0.0 1011454
09:00+26e7123494 0.0 1011568
12:00+33e8102252 0.0 10111433
15:00+36e71217100 0.0 10093910
18:00+33ene61121100 0.0 1009690
21:00+31ene81426100 0.0 1009634
16 august, tue
tue1600:00+30ese101724100 0.0 1010975
03:00+27ese81528100 0.0 1011841
06:00+26e61328100 0.0 1012651
09:00+24e61131100 0.0 1013594
12:00+24e61232100 0.0 1013586
15:00+29e71027100 0.0 10121135
18:00+29ene81228100 0.0 1010918
21:00+26ene71735100 0.0 1010754
17 august, wed
wed1700:00+21ene61664100 1.9 1010390
03:00+21e7166182 2.5 1009379
06:00+20e4137135 0.6 1010297
09:00+25ese58444 0.6 1010556
12:00+31e46270 0.1 10091557
15:00+34ese35250 0.1 10072099
18:00+33ssw34290 0.0 1007843
21:00+25sw225259 0.3 100720